Wetterdaten Frühling 2005

Datum T max T min Regen
01.03.2005 -1.5 °C -13.9 °C 0 mm
02.03.2005 1.8 °C -11 °C 0 mm
03.03.2005 4.5 °C -7.6 °C 2.9 mm
04.03.2005 2.9 °C -7.3 °C 1.1 mm
05.03.2005 1.4 °C -3.2 °C 0.4 mm
06.03.2005 -1.1 °C -6.1 °C 0.4 mm
07.03.2005 1.1 °C -9.5 °C 0 mm
08.03.2005 3.4 °C -0.4 °C 1.4 mm
09.03.2005 3.7 °C 1.5 °C 0.7 mm
10.03.2005 5.3 °C -1.2 °C 2.2 mm
11.03.2005 5.7 °C -2.9 °C 0 mm
12.03.2005 5.4 °C 0.3 °C 6.8 mm
13.03.2005 6.2 °C -0.2 °C 1.1 mm
14.03.2005 10.6 °C -1.4 °C 0 mm
15.03.2005 16.8 °C 5.1 °C 0 mm
16.03.2005 22.4 °C 5.6 °C 0 mm
17.03.2005 20.8 °C 10.8 °C 0 mm
18.03.2005 22.3 °C 10 °C 0 mm
19.03.2005 16 °C 10.9 °C 0 mm
20.03.2005 14.3 °C 5.1 °C 0 mm
21.03.2005 17.8 °C 2.1 °C 0 mm
22.03.2005 18.7 °C 5.4 °C 2.9 mm
23.03.2005 17.8 °C 11 °C 0.4 mm
24.03.2005 17.3 °C 7.2 °C 0 mm
25.03.2005 16.3 °C 8.8 °C 11.9 mm
26.03.2005 16.8 °C 4.8 °C 1.1 mm
27.03.2005 15.8 °C 9.5 °C 2.5 mm
28.03.2005 18.6 °C 8.2 °C 1.1 mm
29.03.2005 19.3 °C 8.8 °C 4 mm
30.03.2005 12.2 °C 8.5 °C 10.4 mm
31.03.2005 17 °C 8.4 °C 5 mm
01.04.2005 17.3 °C 2.7 °C 0 mm
02.04.2005 21.9 °C 3.2 °C 0 mm
03.04.2005 21.8 °C 4.9 °C 0 mm
04.04.2005 22.5 °C 8.2 °C 0 mm
05.04.2005 15.2 °C 10.5 °C 1.8 mm
06.04.2005 18 °C 8 °C 0 mm
07.04.2005 14.1 °C 8.2 °C 6.5 mm
08.04.2005 11.6 °C 6.8 °C 2.9 mm
09.04.2005 6.8 °C 2.3 °C 0 mm
10.04.2005 10.7 °C -0.1 °C 0 mm
11.04.2005 16.6 °C 2.6 °C 0 mm
12.04.2005 13.8 °C 6.1 °C 0 mm
13.04.2005 19.2 °C 9.3 °C 0 mm
14.04.2005 20.8 °C 9 °C 0 mm
15.04.2005 24.9 °C 8.5 °C 0.7 mm
16.04.2005 21.5 °C 7.9 °C 0.4 mm
17.04.2005 17.9 °C 8.8 °C 0.7 mm
18.04.2005 15.2 °C 10.1 °C 0 mm
19.04.2005 12.9 °C 8.7 °C 19.4 mm
20.04.2005 8.8 °C 6.7 °C 15.5 mm
21.04.2005 14.7 °C 1.9 °C 0 mm
22.04.2005 17.8 °C 1.5 °C 0 mm
23.04.2005 21.5 °C 4.8 °C 0 mm
24.04.2005 18 °C 10.8 °C 2.9 mm
25.04.2005 14.2 °C 10.5 °C 8.3 mm
26.04.2005 18 °C 10.2 °C 1.8 mm
27.04.2005 16 °C 10 °C 2.2 mm
28.04.2005 21.5 °C 7.5 °C 0 mm
29.04.2005 24.8 °C 13.3 °C 0 mm
30.04.2005 28.6 °C 13.2 °C 0 mm
01.05.2005 31.2 °C 14.8 °C 0 mm
02.05.2005 31.4 °C 15.8 °C 0 mm
03.05.2005 23.7 °C 13.5 °C 13.7 mm
04.05.2005 18 °C 11.8 °C 3.2 mm
05.05.2005 16.2 °C 10.4 °C 2.2 mm
06.05.2005 14.7 °C 8.8 °C 6.1 mm
07.05.2005 12.8 °C 6.8 °C 5 mm
08.05.2005 12.1 °C 4.7 °C 0.4 mm
09.05.2005 15.3 °C 4.9 °C 0.7 mm
10.05.2005 13.5 °C 3.6 °C 4 mm
11.05.2005 16.9 °C 3.5 °C 0 mm
12.05.2005 20.2 °C 3.8 °C 0 mm
13.05.2005 22.9 °C 7.2 °C 0 mm
14.05.2005 18.4 °C 13.4 °C 2.2 mm
15.05.2005 17.7 °C 10.7 °C 0.4 mm
16.05.2005 19.7 °C 7.5 °C 6.8 mm
17.05.2005 19.4 °C 9.5 °C 0.7 mm
18.05.2005 14 °C 7.7 °C 0 mm
19.05.2005 21.3 °C 6.5 °C 0 mm
20.05.2005 27.9 °C 9.8 °C 0 mm
21.05.2005 23.8 °C 14.5 °C 5.4 mm
22.05.2005 25 °C 14.5 °C 6.8 mm
23.05.2005 17.3 °C 12.1 °C 9 mm
24.05.2005 23.6 °C 9.1 °C 0 mm
25.05.2005 28.3 °C 11 °C 0 mm
26.05.2005 31.5 °C 15.2 °C 0 mm
27.05.2005 34.6 °C 16.7 °C 0 mm
28.05.2005 35.1 °C 17.1 °C 0 mm
29.05.2005 34.7 °C 20.7 °C 0 mm
30.05.2005 24.2 °C 12.5 °C 15.5 mm
31.05.2005 20.5 °C 10.9 °C 0 mm
*) Messwert für diesen Zeitpunkt noch nicht verfügbar
 Hinweis zur Datenqualität
∅ Temperatur

11.2 °C

Abweichung vom Mittel

+1.1 °C

Niederschlag

201.2 mm

Abweichung vom Mittel

115 %

35.1 °C

Lufttemperatur
28.05.2005

1025 hPa

Luftdruck
18.03.2005

38.1 km/h

Windböen
07.05.2005

201.24004 mm

Niederschlag
 

-13.9 °C

Lufttemperatur
01.03.2005

*) °C

Bodentemperatur 5cm
01.01.1970

989 hPa

Luftdruck
16.04.2005
*) Messwert für diesen Zeitpunkt noch nicht verfügbar
 Hinweis zur Datenqualität